{"data":{"norad_id":56719,"intl_designator":"2023-068K","name":"ONEWEB-0683","alt_names":[],"object_type":"PAYLOAD","status":"ACTIVE","operator":null,"country":"UK","launch_date":"2023-05-20","launch_site_code":"AFWTR","launch_vehicle":null,"mission":null,"orbit_class":"UNKNOWN","rcs_meters":null,"size_class":null,"mass_kg":null,"dimensions":null,"purposes":["comms"],"wikipedia_slug":null,"has_3d_model":false,"image_url":null,"decayed_at":null,"tle_current":{"epoch":"2026-05-25T02:03:59.241312Z","epoch_age_seconds":67378,"freshness":"FRESH","line1":"1 56719U 23068K   26145.08610233  .00000207  00000+0  51613-3 0  9995","line2":"2 56719  87.9001 263.7950 0001970 108.4841 251.6503 13.15547384146385","mean_motion":13.15547384,"eccentricity":0.000197,"inclination_deg":87.9001,"raan_deg":263.795,"arg_perigee_deg":108.4841,"mean_anomaly_deg":251.6503,"bstar":0.00051613,"rev_number":14638,"period_min":109.46013936964,"perigee_km":1200.2820035798,"apogee_km":1203.2684890048,"semimajor_km":7579.9122462923,"source":"CELESTRAK","updated_at":"2026-05-25T13:38:22.744905Z"}}}